Location: Carson
(33.8314°N, 118.2820°W)
Time: 20:00:58
(UTC+00:00)

Daily predictions for brighter satellites

Satellite Brightness Start Highest point End
(mag) Time Altitude Azimuth Time Altitude Azimuth Time Altitude Azimuth
Delta 2 Rocket 4.3 12:16:38 50° ENE 12:16:38 50° ENE 12:20:01 10° E
USA 234 3.6 12:13:44 10° NE 12:20:12 62° SE 12:25:57 14° SSW
SL-16 R/B 2.1 12:28:21 50° NNW 12:29:54 88° ENE 12:35:34 10° SSE
SL-8 R/B 4.1 12:32:33 49° N 12:33:10 53° NE 12:37:52 10° ESE
ADEOS 3.4 12:28:24 10° NNE 12:33:38 89° WNW 12:38:51 10° SSW
Cosmos 1745 Rocket 3.8 12:28:12 10° S 12:34:24 78° W 12:40:45 10° N
ASTRO E2 3.3 12:36:31 49° SSE 12:36:31 49° SSE 12:40:10 10° E
Cosmos 2151 3.0 12:37:02 10° S 12:41:12 75° E 12:45:24 10° N
SL-08 ROCKET BODY 4.5 12:38:16 10° SSW 12:44:06 52° W 12:50:05 10° N
ERS-2 2.4 12:40:59 10° SSE 12:44:34 64° ENE 12:45:29 45° NNE
SL-4 R/B 3.8 12:49:34 19° N 12:49:34 19° N 12:51:09 10° NNE
BREEZE-M DEB (TANK) 3.1 12:47:38 32° S 12:48:34 45° SE 12:53:26 10° ENE
OAO 3 Rocket 3.0 12:48:32 59° WNW 12:49:22 79° N 12:54:07 10° E
Cosmos 1777 Rocket 3.8 12:46:40 10° SSW 12:51:49 66° WNW 12:56:59 10° N
SJ 16-02 2.7 12:51:36 10° S 12:55:43 41° E 12:59:53 10° NNE
Lacrosse 5 3.0 12:51:38 10° SSW 12:56:24 43° ESE 13:01:11 10° NE
COSMO-SKYMED 1 3.5 12:52:16 10° SSE 12:56:27 49° ENE 13:00:38 10° N
Meteor PRIRODA 4.4 12:53:39 10° NNE 12:57:19 53° E 13:00:57 10° S
CZ-4B R/B 1.1 12:54:18 10° S 12:57:22 77° SW 12:57:22 77° SW
METEOR-M 4.1 12:52:31 10° N 12:57:47 60° WNW 13:03:00 10° SSW
Cosmos 1709 Rocket 4.0 12:54:04 10° S 13:00:23 87° W 13:06:49 10° N
Cosmos 1606 2.8 12:57:12 13° N 13:00:33 73° E 13:04:18 10° SSE
BREEZE-M DEB (TANK) 3.8 13:02:40 23° N 13:02:40 23° N 13:04:37 10° NE
Meteor 1-31 Rocket 2.9 12:59:45 10° N 13:03:28 48° WNW 13:07:08 10° SSW
Cosmos 389 Rocket 2.2 13:02:33 40° NNW 13:03:40 78° W 13:07:08 10° S
Cosmos 2263 Rocket 2.1 12:59:07 10° SSW 13:04:43 68° WNW 13:10:23 10° NNE
CZ-4B R/B 3.0 13:08:03 10° N 13:12:34 80° WNW 13:16:59 10° SSW
PSLV R/B 4.5 13:11:58 10° SSE 13:16:04 61° ENE 13:20:10 10° N
GPS 2-04 Rocket1 3.3 13:14:43 17° SW 13:17:22 48° SSE 13:20:58 10° E
Cosmos 1441 Rocket 3.4 13:13:45 10° SSW 13:17:27 46° W 13:21:06 10° N
ALOS 3.3 13:15:54 10° NNW 13:22:35 14° WSW 13:23:24 10° SW
SKYMED 3 4.5 13:16:07 10° S 13:20:27 84° WSW 13:24:49 10° NNW
Cosmos 1603 4.1 13:18:42 10° NNW 13:24:16 62° ENE 13:29:50 10° SSE
OAO 2 Rocket 3.7 13:21:31 13° WSW 13:25:55 65° SSE 13:31:03 10° E
Atlas Centaur 2 3.4 13:21:28 10° SW 13:26:28 31° SSE 13:30:33 10° ESE
MOS 1 Rocket 4.5 13:25:43 10° SE 13:30:00 44° ENE 13:34:34 10° N
Cosmos 1184 Rocket 2.7 13:28:19 10° SSW 13:31:33 66° W 13:34:50 10° N
FALCON 9 DEB 4.3 13:29:12 10° SSW 13:32:13 41° SE 13:35:16 10° ENE
Cosmos 1943 3.5 13:31:04 10° NNW 13:36:46 71° ENE 13:42:26 10° SSE
ASTRO F (AKARI) 4.1 13:34:06 10° N 13:37:09 61° WNW 13:40:13 10° SSW
Cosmos 2184 Rocket 4.5 13:32:21 10° S 13:38:33 67° E 13:44:50 10° NNE
NOSS 3-4 (A) 3.6 13:38:11 10° SW 13:43:44 44° NW 13:49:35 10° NNE
NOSS 3-4 (C) 3.6 13:38:17 10° SW 13:43:52 45° NW 13:49:44 10° NNE
SKYMED 2 4.0 13:40:24 10° S 13:44:29 41° W 13:48:37 10° NNW
SWAS 4.4 13:40:59 10° NNW 13:45:15 74° WSW 13:49:29 10° SSE
Envisat 3.2 13:41:39 10° NNE 13:46:45 80° ESE 13:51:49 10° S
FALCON 9 DEB 3.4 13:45:44 10° SW 13:48:53 63° SE 13:52:04 10° NE
NOSS 3-2 (C) 4.3 13:40:56 10° NNW 13:48:54 88° ENE 13:57:40 10° SSE
Meteor 1-4 Rocket 2.4 13:46:11 10° N 13:49:39 87° E 13:53:04 10° S
BREEZE-M (TANK) 4.4 13:36:29 10° SW 13:51:07 62° SE 13:54:51 10° ENE
Cosmos 2084 4.0 13:48:01 10° NNW 13:52:29 61° ENE 13:56:55 10° SE
Cosmos 1862 4.4 13:49:15 10° SSE 13:53:08 49° E 13:57:03 10° NNE
USA 276 2.7 13:50:36 13° WNW 13:53:11 42° SW 13:56:11 10° SSE
Cosmos 1937 Rocket 4.3 13:49:04 10° S 13:54:04 55° ESE 13:59:05 10° NNE
Cosmos 1515 Rocket 4.1 13:50:22 10° N 13:54:48 66° E 13:59:13 10° SSE
H-2A R/B 2.2 13:51:50 10° NNE 13:55:42 86° WNW 13:59:30 10° SSW
Delta 2 Rocket 3.5 13:53:30 11° WNW 13:58:05 79° SSW 14:02:09 10° ESE
Okean O Rocket 2.7 13:54:25 10° NNE 13:58:44 51° E 14:03:03 10° S
H-2A R/B 3.3 13:56:19 10° N 13:59:56 37° WNW 14:03:31 10° SW
USA 234 3.9 13:57:07 10° NNE 14:02:54 35° NW 14:08:41 10° W
ATLAS 2AS CENTAUR R/B 3.2 13:55:40 10° SW 14:03:17 50° NW 14:10:58 10° NNE
Cosmos 1933 4.4 14:05:39 10° NNW 14:09:04 26° W 14:12:29 10° SSW
Cosmos 1633 4.2 14:07:36 10° WSW 14:09:37 14° WNW 14:11:38 10° NW
Meteor 1-26 Rocket 4.4 14:04:38 10° NNW 14:10:15 52° W 14:15:40 10° SSW
PAYLOAD B 4.2 14:05:23 10° N 14:10:54 76° WNW 14:16:22 10° SSW
CENTAUR R/B 3.4 14:02:57 10° NW 14:11:23 70° WSW 14:20:11 10° SSE
